Regional Weather Roundup
Issued by NWS

Home | Current Version | Previous Version | Graphics & Text | Print | Product List | Glossary On
Versions: 1 2 3 4 5 6 7 8 9 10 11 12 13 14 15 16 17 18 19 20 21 22 23 24 25 26 27 28 29 30 31 32 33 34 35 36 37 38 39 40 41 42 43 44 45 46 47 48 49 50
000
ASUS43 KLOT 200610
RWRIL

ILLINOIS REGIONAL WEATHER ROUNDUP
NATIONAL WEATHER SERVICE CHICAGO/ROMEOVILLE IL
100 AM CDT WED AUG 20 2014

NOTE: "FAIR" INDICATES FEW OR NO CLOUDS BELOW 12,000 FEET WITH NO
SIGNIFICANT WEATHER AND/OR OBSTRUCTIONS TO VISIBILITY.

* THESE STATIONS ARE NOT UNDER NWS QUALITY CONTROL. THEY ALSO MAY NOT
  REPORT WEATHER SUCH AS PRECIPITATION OR FOG.

ILZ001-002-007-009-015-016-024-200700-
NORTHWEST ILLINOIS

CITY           SKY/WX    TMP DP  RH WIND       PRES   REMARKS
MOLINE         FAIR      66  63  90 CALM      29.82S
6HR MIN TEMP:  65; 6HR MAX TEMP:  83;

STERLING*      FAIR      66  63  88 W3        29.82S
SAVANNA*       FAIR      65  61  86 CALM      29.81S
$$

ILZ003-004-008-010-011-017-018-200700-
NORTH CENTRAL ILLINOIS

CITY           SKY/WX    TMP DP  RH WIND       PRES   REMARKS
ROCKFORD       FAIR      68  62  81 CALM      29.83R
6HR MIN TEMP:  66; 6HR MAX TEMP:  80;

FREEPORT*      FAIR      64  62  90 W5        29.83S
ROCHELLE*      FAIR      62  60  93 SW5       29.82R
DE KALB*       FAIR      67  62  84 SW5       29.82S
PERU*          FAIR      66  62  89 W7        29.83R
$$

ILZ005-006-012>014-019>023-200700-
NORTHEAST ILLINOIS

CITY           SKY/WX    TMP DP  RH WIND       PRES   REMARKS
CHICAGO-OHARE  FAIR      70  62  76 W6        29.79R
6HR MIN TEMP:  69; 6HR MAX TEMP:  82; 6HR PCP:  0.06;

CHICAGO-MIDWAY FAIR      73  65  75 W6        29.79R
6HR MIN TEMP:  73; 6HR MAX TEMP:  83;

AURORA         FAIR      64  61  90 CALM      29.81R
6HR MIN TEMP:  64; 6HR MAX TEMP:  80;

LANSING*       FAIR      67  66  94 CALM      29.80S
JOLIET*        FAIR      65  64  95 CALM      29.82R
WAUKEGAN       FAIR      66  63  90 SW3       29.78R
6HR MIN TEMP:  65; 6HR MAX TEMP:  80;

DUPAGE AIRPORT FAIR      67  62  84 W6        29.80R
6HR MIN TEMP:  67; 6HR MAX TEMP:  82;

KANKAKEE*      FAIR      67  66  96 W6        29.82S
WHEELING       FAIR      70  64  81 CALM      29.80R
6HR MIN TEMP:  69; 6HR MAX TEMP:  82; 6HR PCP:  0.11;

MORRIS*        FAIR      67  66  97 W5        29.81S
ROMEOVILLE*    FAIR      67  66  96 W3        29.81R
NORTHERLY ISL    N/A     75  63  66 W5          N/A
$$

LMZ740>746-200700-
SOUTHERN LAKE MICHIGAN

STATION/POSITION SKY/WX   TEMP    WIND        PRES    VSBY  WAVE
                          AIR SEA DIR/SP/G                  HT/PER
                          (F)     (DEG/KT/KT) (MB)    (MI)  (FT/S)
SOUTHERN BUOY              67 66  280/  4/  4 1007.9R         1/ 4
WAUKEGAN HARBOR            72     280/  7/  8   N/A
HARRISON CRIB              74     270/  9/  9   N/A
BURNHAM HARBOR             75     270/  6/  6   N/A
CALUMET HARBOR             73     210/  3/  4 1007.6S
BURNS HARBOR               73     190/  7/  8   N/A
MICHIGAN CITY              72     200/ 11/ 12   N/A
MICHIGAN CITY 6N           72 70  240/  8/ 12   N/A           1/ 2
ST. JOSEPH                 71 70  210/  8/ 10   N/A           1/ 3
$$

ILZ025>027-034>036-040-047-049-050-058-095>099-200700-
WEST-CENTRAL ILLINOIS

CITY           SKY/WX    TMP DP  RH WIND       PRES   REMARKS
QUINCY         FAIR      71  69  93 CALM      29.84S
GALESBURG*     FAIR      63  61  95 CALM      29.84S FOG
MACOMB*        FAIR      66  65  99 CALM      29.86F FOG
JACKSONVILLE*  FAIR      73  71  95 N6        29.85S
PITTSFIELD*    FAIR      74  69  85 CALM      29.85S
$$

ILZ028>032-037-038-041>044-048-051>054-059>061-200700-
CENTRAL ILLINOIS

CITY           SKY/WX    TMP DP  RH WIND       PRES   REMARKS
PONTIAC        FAIR      70  68  94 CALM      29.82S
DECATUR        LGT RAIN  75  71  87 W6        29.84S
PEORIA         FAIR      71  67  87 CALM      29.84R
6HR MIN TEMP:  71; 6HR MAX TEMP:  82;

LACON*         FAIR      67  64  91 CALM      29.82S
LINCOLN*       FAIR      71  68  90 CALM      29.82R
SPRINGFIELD    FAIR      70  68  93 CALM      29.84S
6HR MIN TEMP:  69; 6HR MAX TEMP:  83;

TAYLORVILLE    FAIR      66  66 100 CALM      29.84F FOG
$$

ILZ033-039-045-046-055>057-062-063-200700-
EAST-CENTRAL ILLINOIS

CITY           SKY/WX    TMP DP  RH WIND       PRES   REMARKS
CHAMPAIGN      FAIR      66  65  96 W5        29.84F
DANVILLE*        N/A     67  67  98 W5        29.81S
RANTOUL*       FAIR      72  67  84 W6        29.84F
MATTOON        FAIR      73  69  87 SW5       29.84S
PARIS*         FAIR      70  70  99 CALM      29.85R
$$

ILZ079-100>102-200700-
SOUTHWEST ILLINOIS

CITY           SKY/WX    TMP DP  RH WIND       PRES   REMARKS
ALTON          FAIR      72  72 100 CALM      29.85S FOG
BELLEVILLE     FAIR      73  73 100 W1        29.83S FOG
CAHOKIA*       FAIR      73  70  90 CALM      29.84R
SPARTA*        FAIR      70  69  96 CALM      29.85S
$$

ILZ064>066-069>071-074>076-080>082-084>086-088>090-092>094-200700-
SOUTH-CENTRAL ILLINOIS

CITY           SKY/WX    TMP DP  RH WIND       PRES   REMARKS
CARBONDALE     FAIR      69  67  93 CALM      29.84S
6HR MIN TEMP:  69; 6HR MAX TEMP:  80;

CAIRO*           N/A     73  69  89 CALM      29.84S
MARION         FAIR      70  68  94 CALM      29.85S
MT. VERNON     FAIR      70  64  83 CALM      29.86S
CENTRALIA*     FAIR      69  66  92 CALM      29.85S
SALEM*         FAIR      72  71  96 CALM      29.86R
$$

ILZ067-068-072-073-078-083-087-091-200700-
SOUTHEAST ILLINOIS

CITY           SKY/WX    TMP DP  RH WIND       PRES   REMARKS
LAWRENCEVILLE  FAIR      75  73  93 W5        29.85R
FLORA*         FAIR      71  70  98 CALM      29.86S
FAIRFIELD*     FAIR      72  70  94 MISG      29.85S FOG
HARRISBURG*    FAIR      69  69  99 CALM      29.86S
ROBINSON*      FAIR      75  74  96 SW5       29.86R
$$

ABBREVIATIONS USED IN REMARKS
   TC - TEMPERATURE IN CELSIUS
  WCI - WIND CHILL INDEX
   HX - HEAT INDEX
  VSB - VISIBILITY
$$



USA.gov is the U.S. government's official web portal to all federal, state and local government web resources and services.